Wind_Speed
40 38 35 34 33 31 33 31 28 27 25 20 18 20 24 28 32 36 36 32 30 31 31 32 31 31 31 33 34 35 38 40 43 42 39 34 32 31 28 29 30 30 30 30 31 32 32
37 41 39 34 33 30 31 29 26 23 22 17 17 20 25 30 35 37 36 34 30 29 30 31 31 32 33 35 35 37 42 43 44 44 41 37 35 32 32 32 34 34 35 35 35 34 35
33 32 35 36 35 32 29 27 25 22 20 17 18 22 27 32 35 37 36 34 32 31 32 33 33 35 36 37 37 39 44 46 47 46 42 40 39 37 36 35 36 36 36 38 37 37 38
37 35 31 33 34 33 31 26 24 22 20 18 18 22 27 32 36 37 36 35 35 35 35 35 36 36 37 38 38 40 45 48 47 47 44 43 43 41 41 40 41 40 40 41 39 41 42
43 39 35 30 33 32 31 27 24 22 22 20 20 22 26 31 36 38 38 37 38 38 38 38 37 37 39 38 39 41 46 50 49 48 47 45 44 45 46 46 45 46 42 41 43 46 46
46 43 39 33 31 33 32 30 26 24 23 23 22 23 26 29 32 35 36 38 39 39 38 38 38 38 40 40 41 41 47 52 51 51 50 47 45 46 52 53 50 45 45 48 50 50 49
50 45 41 37 31 35 33 32 29 25 26 25 25 24 25 28 30 32 35 36 36 37 38 39 39 39 40 40 41 42 47 54 54 55 53 50 48 53 54 52 52 52 51 50 55 56 52
51 50 45 40 37 33 36 34 31 27 26 27 27 28 27 28 30 32 35 37 38 39 40 41 40 40 41 42 42 43 46 53 58 58 56 55 52 58 56 55 57 57 57 56 61 62 56
46 52 51 43 41 36 36 37 35 31 27 28 29 29 30 31 32 34 35 37 39 41 42 42 43 43 43 45 45 46 46 50 57 60 61 57 58 61 61 61 61 61 61 65 65 67 62
48 48 54 50 44 41 37 40 39 36 32 29 30 31 32 33 35 36 37 38 41 43 44 44 44 45 47 48 49 48 48 49 52 56 60 61 65 65 65 65 69 64 70 68 69 71 69
50 48 51 55 48 44 42 37 42 42 38 35 30 31 34 35 37 38 39 40 42 44 45 46 46 48 50 51 52 51 52 52 53 54 54 58 67 68 68 71 72 70 74 75 76 76 75
52 51 49 57 53 48 46 43 39 45 43 41 36 33 34 37 39 40 43 43 45 44 44 45 49 52 52 53 53 55 56 57 56 56 57 62 62 67 73 76 78 78 79 82 84 84 82
51 53 53 51 61 54 50 48 44 40 45 45 43 39 37 35 38 41 43 46 48 47 47 48 51 54 56 56 56 57 59 59 60 61 62 64 67 69 72 75 80 82 83 87 89 90 88
48 52 54 53 52 62 57 53 49 44 42 46 47 45 44 42 40 39 40 44 46 49 53 56 57 58 59 60 61 63 65 65 65 66 66 67 68 70 72 76 79 82 86 89 93 92 92
45 50 54 55 53 57 64 58 54 51 47 44 44 48 48 48 46 45 44 44 44 47 50 53 55 56 58 62 65 67 68 68 70 71 73 72 70 73 76 78 81 84 86 91 95 92 94
41 46 50 54 55 54 60 63 59 56 54 50 47 44 47 50 50 50 49 50 50 50 49 49 50 51 55 60 62 67 67 67 71 74 77 76 74 75 78 82 87 90 91 95 98 100 100
41 44 49 52 55 56 55 61 64 62 59 56 53 51 51 50 49 49 50 51 52 53 52 53 54 56 60 62 62 65 65 68 70 72 75 76 77 73 77 83 89 94 97 100 102 105 108
41 43 46 49 53 55 55 58 63 65 64 61 60 59 57 55 56 56 56 59 59 60 60 61 63 65 66 69 70 73 76 77 79 82 82 83 85 81 83 89 92 95 98 101 106 108 111
37 37 43 45 48 53 55 55 58 61 66 66 66 65 65 65 64 64 65 65 66 67 68 69 71 73 75 77 79 81 83 85 87 89 91 93 95 93 94 97 100 105 107 109 111 114 113
33 36 40 43 44 46 51 55 55 57 62 68 69 68 69 71 71 71 72 73 73 74 74 76 78 80 82 83 86 87 91 94 97 99 101 102 103 106 104 106 108 110 113 116 120 121 121
34 35 36 40 41 45 49 52 53 54 57 61 66 70 72 71 72 74 76 78 79 80 81 82 83 86 89 91 93 95 99 100 103 104 104 104 103 105 108 110 113 112 113 116 120 123 125
33 36 35 37 42 43 44 48 50 51 53 55 60 64 69 74 77 79 81 82 83 83 84 85 87 89 91 92 92 92 94 96 98 102 105 105 107 109 108 113 113 111 109 110 111 114 117
33 33 36 39 41 43 45 47 51 50 52 55 56 60 63 67 68 69 71 73 76 78 79 79 80 82 85 87 90 92 95 98 100 103 106 108 110 111 110 114 114 113 118 118 117 118 119
31 32 34 36 37 41 45 47 49 53 55 54 54 58 62 65 65 66 68 69 70 72 75 78 81 84 87 91 95 97 99 101 102 104 105 109 112 116 114 115 113 115 117 120 120 118 118
31 32 34 36 38 40 45 49 53 52 55 57 58 59 63 64 65 67 70 72 73 77 80 83 84 85 87 91 96 98 100 101 103 106 108 111 115 116 112 112 109 103 106 108 108 109 109
31 32 33 34 38 41 43 45 51 55 53 56 58 57 58 60 64 69 71 73 77 82 84 85 88 90 94 97 99 100 101 103 106 108 109 112 112 111 108 103 99 98 99 99 98 97 100
27 31 34 36 37 40 44 47 48 49 51 53 55 58 61 64 68 71 73 77 81 85 87 89 91 93 96 98 99 102 105 107 111 112 112 110 107 101 100 98 94 93 90 88 87 87 89
23 24 27 31 35 38 42 48 48 49 52 55 58 61 65 69 74 76 79 81 84 86 89 92 93 95 97 100 104 106 107 110 111 110 108 100 97 95 93 93 87 83 80 80 80 80 81
28 27 28 31 35 40 45 49 52 54 56 61 66 69 72 76 79 80 80 83 84 85 88 92 94 97 100 103 105 106 108 106 100 95 93 91 91 89 86 83 80 76 72 71 71 72 73
Wind_Direction
269 270 274 278 279 278 280 286 290 289 286 274 257 238 222 215 214 210 216 222 229 224 218 222 225 228 231 224 224 225 222 220 213 213 211 207 207 210 212 212 213 215 214 214 215 216 220
270 268 270 273 275 276 278 285 286 284 278 265 248 232 220 212 208 209 214 221 224 217 217 219 224 227 229 221 223 224 221 219 216 215 214 213 215 216 220 221 219 220 221 219 219 221 227
271 271 269 268 269 273 279 281 281 280 272 255 238 227 218 212 212 213 217 220 221 220 220 223 224 228 222 220 224 224 221 218 218 218 219 220 220 221 226 227 227 224 227 227 223 226 231
264 268 271 266 263 266 271 277 276 272 267 253 237 225 220 216 215 216 219 221 222 222 223 225 227 223 221 222 225 226 224 220 220 222 222 224 225 226 228 230 232 230 231 231 231 231 233
260 262 265 270 257 258 262 268 274 264 260 255 239 228 222 220 219 220 222 223 224 224 225 224 223 222 224 224 227 229 227 223 222 223 225 226 228 230 232 233 233 234 234 237 237 237 236
257 258 259 262 257 252 255 259 264 260 254 249 244 234 227 224 224 223 224 223 224 223 223 221 222 225 227 227 229 232 230 226 224 225 228 228 230 235 236 234 234 236 239 242 243 240 237
250 252 254 256 260 249 251 253 256 262 252 247 242 237 232 227 227 226 224 223 222 222 221 223 225 228 230 231 233 236 233 228 228 229 229 232 232 238 240 238 238 239 240 243 247 245 238
249 245 247 250 253 251 246 248 250 254 255 248 244 238 235 233 229 228 226 225 225 225 225 228 229 232 233 235 235 237 238 234 232 232 232 232 234 240 242 241 240 240 241 244 247 248 242
248 245 241 243 247 249 245 244 245 247 251 250 246 243 237 234 233 232 231 230 230 231 231 233 233 235 237 238 240 239 239 240 239 237 236 235 238 244 243 244 244 245 244 247 247 250 248
243 243 241 241 239 246 247 243 243 243 245 248 247 245 242 237 234 232 234 234 235 235 236 237 239 241 243 242 243 244 245 245 245 245 243 242 244 244 248 247 247 248 249 247 250 249 250
244 241 240 234 236 238 244 246 240 241 243 244 245 244 244 241 238 238 235 236 237 238 239 241 242 243 247 248 249 249 250 250 250 250 250 249 248 249 250 251 251 249 250 251 250 250 248
246 241 239 235 232 236 238 243 245 240 242 244 243 242 243 241 242 239 240 240 239 240 241 244 245 246 246 248 250 252 253 252 254 255 254 255 253 253 253 253 253 252 253 253 252 253 250
246 244 239 237 230 231 236 237 241 244 241 242 243 242 242 244 243 244 244 242 244 245 244 243 245 247 248 249 250 251 253 254 255 254 254 254 256 256 257 257 258 258 256 256 255 256 255
247 245 242 237 236 231 234 236 237 240 243 242 243 244 243 244 245 244 245 246 246 245 245 247 249 251 253 256 256 255 255 255 255 255 256 257 257 258 258 260 259 261 262 262 259 258 258
247 245 244 239 236 235 232 235 237 238 240 243 244 245 246 246 245 246 248 248 247 248 249 249 250 252 254 256 257 258 259 260 260 260 258 256 257 259 262 263 263 262 262 262 263 261 258
255 247 245 242 238 238 237 234 235 239 241 240 242 244 246 248 248 248 248 248 249 250 251 252 253 255 256 257 257 258 258 261 263 263 263 262 259 261 263 264 264 264 264 265 267 265 263
258 253 247 243 240 238 239 238 236 238 240 241 242 243 246 245 245 245 246 247 247 249 248 249 252 254 255 257 258 261 261 261 262 263 264 265 265 263 266 267 267 268 267 265 266 267 268
257 254 250 245 241 238 239 241 238 237 240 242 244 245 245 248 249 250 251 249 249 250 251 252 254 257 259 260 261 262 262 262 263 263 263 265 263 261 260 264 266 266 268 269 271 270 271
257 249 250 252 247 242 241 244 245 242 241 244 246 248 250 251 252 254 254 255 256 256 255 257 259 261 262 264 265 267 268 269 268 268 268 268 268 267 267 264 264 265 266 266 266 266 267
252 251 250 249 249 243 243 242 244 244 244 244 246 249 252 255 256 256 258 259 259 258 259 260 263 264 266 268 268 268 270 270 270 270 270 271 272 273 272 270 268 268 268 266 266 266 266
253 250 252 246 246 244 240 240 245 246 247 247 247 250 252 254 256 258 259 261 263 263 264 265 266 267 269 270 271 272 272 272 272 272 272 272 272 271 272 272 270 269 268 268 269 270 269
253 252 252 248 244 240 240 239 240 243 249 251 250 251 253 255 257 260 262 263 265 266 268 269 270 270 271 272 273 273 273 274 274 275 275 276 275 276 276 276 276 275 275 273 271 271 270
259 259 252 247 244 241 239 238 240 241 243 245 248 252 256 256 258 260 261 263 264 266 267 268 268 269 270 270 271 272 273 273 275 276 278 278 278 278 277 277 279 280 279 277 274 272 271
263 258 252 251 250 247 244 244 239 242 245 245 248 251 255 256 257 259 261 262 264 266 268 267 267 269 272 273 273 274 275 277 277 278 278 277 278 278 280 281 281 280 278 275 274 274 273
263 259 254 255 252 249 243 242 241 244 244 248 251 255 256 257 258 259 259 260 261 262 265 268 269 270 271 273 274 275 278 279 280 280 280 280 281 284 286 286 284 282 278 276 275 274 272
262 260 255 253 251 250 252 251 249 249 255 255 256 260 264 262 261 261 263 263 263 264 266 268 269 270 272 275 277 279 280 281 282 282 282 284 287 289 288 285 283 282 280 278 277 275 272
267 261 258 258 258 258 254 258 259 260 259 259 259 260 260 261 262 263 263 263 264 267 270 271 273 274 277 279 280 281 282 283 284 287 289 290 291 288 287 285 284 283 281 279 277 275 273
265 264 262 258 257 256 252 257 260 262 263 261 260 260 262 264 264 264 265 267 270 271 273 275 278 279 280 281 282 283 284 286 288 289 290 290 290 289 288 287 286 283 282 279 278 277 275
265 260 259 258 257 256 255 257 259 260 261 262 264 263 264 266 269 272 274 277 277 277 278 279 279 280 280 281 283 285 286 288 289 289 289 289 289 288 288 288 287 285 283 280 278 277 275
Height
10617 10616 10616 10615 10615 10613 10612 10610 10607 10604 10601 10599 10598 10599 10602 10605 10610 10617 10623 10628 10633 10637 10641 10646 10651 10655 10659 10662 10666 10670 10673 10676 10680 10683 10686 10688 10690 10693 10696 10698 10701 10704 10706 10709 10711 10713 10715
10608 10608 10608 10607 10607 10607 10606 10604 10602 10600 10598 10595 10595 10597 10600 10602 10607 10612 10618 10623 10627 10630 10635 10640 10644 10648 10652 10655 10660 10663 10667 10670 10673 10676 10679 10682 10685 10688 10690 10693 10695 10698 10700 10702 10705 10708 10709
10600 10599 10599 10599 10599 10600 10600 10599 10597 10596 10595 10593 10593 10595 10597 10601 10605 10609 10613 10617 10620 10625 10628 10633 10638 10642 10646 10649 10652 10657 10660 10663 10667 10670 10673 10675 10679 10682 10685 10688 10689 10693 10694 10696 10699 10702 10702
10591 10591 10591 10591 10592 10593 10594 10594 10593 10592 10592 10591 10591 10591 10594 10597 10601 10605 10608 10611 10614 10618 10622 10626 10631 10635 10639 10642 10646 10649 10653 10656 10659 10663 10666 10668 10672 10674 10676 10680 10681 10684 10686 10688 10693 10694 10695
10581 10582 10583 10584 10584 10585 10587 10587 10588 10587 10587 10588 10588 10588 10590 10592 10595 10599 10602 10605 10608 10612 10616 10619 10623 10627 10631 10635 10638 10641 10645 10648 10651 10655 10657 10661 10664 10666 10667 10669 10672 10674 10679 10683 10684 10684 10687
10569 10572 10574 10576 10576 10578 10579 10580 10581 10581 10582 10583 10583 10584 10585 10587 10590 10592 10596 10599 10602 10605 10608 10612 10616 10619 10623 10627 10629 10633 10636 10640 10642 10645 10649 10653 10656 10657 10654 10657 10664 10671 10672 10671 10671 10673 10678
10557 10561 10563 10566 10567 10569 10571 10573 10574 10574 10575 10577 10578 10579 10580 10582 10584 10586 10589 10592 10595 10598 10602 10605 10609 10611 10614 10619 10622 10624 10627 10630 10632 10635 10639 10645 10648 10641 10644 10653 10656 10657 10660 10662 10658 10659 10669
10543 10547 10551 10554 10557 10559 10562 10564 10566 10567 10567 10568 10570 10572 10574 10576 10578 10580 10583 10585 10588 10591 10594 10597 10601 10603 10607 10609 10612 10615 10617 10620 10622 10624 10630 10633 10637 10631 10637 10640 10643 10646 10648 10650 10646 10646 10657
10529 10534 10538 10543 10546 10549 10551 10554 10557 10559 10560 10560 10562 10565 10567 10569 10571 10573 10576 10579 10581 10583 10587 10590 10592 10595 10597 10600 10601 10604 10606 10609 10611 10615 10618 10625 10625 10621 10625 10628 10631 10633 10636 10634 10635 10634 10643
10513 10519 10525 10531 10534 10538 10541 10544 10547 10550 10552 10552 10554 10557 10559 10561 10563 10565 10568 10571 10573 10575 10578 10582 10585 10587 10588 10589 10591 10594 10597 10600 10601 10604 10609 10616 10609 10611 10613 10616 10613 10625 10615 10619 10621 10620 10626
10499 10503 10509 10516 10522 10526 10530 10533 10536 10540 10543 10544 10547 10548 10549 10552 10554 10556 10558 10561 10563 10565 10570 10574 10575 10576 10576 10578 10581 10585 10587 10589 10590 10593 10597 10598 10596 10599 10601 10595 10598 10605 10601 10600 10600 10602 10606
10484 10489 10494 10501 10508 10514 10518 10522 10526 10529 10533 10535 10538 10540 10540 10543 10544 10547 10549 10551 10553 10556 10560 10562 10562 10562 10565 10566 10568 10570 10572 10574 10580 10582 10584 10581 10584 10583 10580 10580 10580 10583 10582 10579 10581 10583 10590
10470 10475 10480 10486 10494 10500 10505 10509 10514 10519 10521 10525 10527 10530 10532 10534 10536 10537 10539 10541 10544 10547 10548 10551 10549 10548 10551 10554 10556 10556 10557 10561 10562 10564 10566 10567 10566 10566 10565 10565 10560 10561 10561 10559 10560 10562 10568
10456 10460 10465 10471 10478 10486 10491 10497 10503 10507 10509 10513 10515 10519 10522 10524 10526 10527 10529 10532 10533 10534 10535 10536 10537 10538 10540 10540 10540 10541 10541 10545 10547 10549 10550 10551 10552 10549 10548 10544 10544 10544 10539 10537 10529 10538 10542
10441 10446 10451 10457 10463 10469 10476 10484 10490 10494 10498 10502 10504 10507 10510 10512 10514 10517 10519 10520 10520 10521 10523 10525 10526 10527 10527 10524 10525 10524 10525 10527 10529 10530 10530 10534 10539 10534 10529 10527 10525 10522 10517 10510 10503 10513 10513
10429 10433 10437 10443 10450 10456 10462 10470 10477 10482 10486 10489 10492 10495 10498 10500 10502 10504 10507 10507 10508 10509 10511 10512 10513 10514 10511 10509 10510 10508 10511 10512 10509 10509 10507 10514 10522 10519 10514 10506 10499 10494 10496 10490 10483 10483 10486
10417 10420 10424 10430 10436 10442 10448 10455 10462 10467 10472 10477 10480 10482 10485 10487 10490 10492 10493 10493 10494 10496 10498 10497 10497 10497 10495 10493 10494 10492 10494 10493 10491 10490 10488 10490 10496 10504 10495 10485 10477 10472 10471 10470 10463 10457 10451
10407 10409 10412 10416 10422 10428 10435 10440 10445 10451 10457 10462 10465 10468 10471 10474 10476 10478 10478 10478 10480 10481 10482 10482 10482 10480 10480 10477 10476 10475 10472 10473 10470 10467 10470 10468 10470 10483 10477 10462 10459 10452 10449 10444 10431 10433 10424
10397 10397 10400 10405 10410 10415 10422 10427 10432 10438 10442 10446 10450 10453 10456 10458 10460 10462 10462 10462 10463 10465 10467 10466 10465 10463 10462 10460 10459 10454 10451 10448 10445 10444 10443 10444 10442 10447 10448 10443 10436 10427 10423 10418 10411 10403 10408
10386 10387 10389 10393 10397 10402 10407 10412 10417 10422 10426 10431 10434 10436 10439 10442 10444 10445 10444 10444 10445 10447 10448 10447 10445 10443 10441 10439 10435 10435 10428 10425 10420 10420 10416 10414 10415 10409 10411 10409 10403 10399 10394 10387 10379 10372 10373
10375 10377 10379 10382 10385 10390 10394 10399 10404 10408 10410 10414 10417 10420 10423 10423 10425 10426 10426 10425 10426 10427 10426 10425 10425 10421 10418 10415 10411 10406 10401 10399 10392 10390 10387 10384 10384 10379 10375 10371 10363 10367 10366 10358 10347 10335 10326
10366 10368 10370 10372 10375 10379 10383 10385 10389 10393 10396 10399 10401 10403 10404 10406 10406 10408 10407 10406 10405 10405 10403 10401 10400 10395 10391 10389 10384 10380 10376 10370 10365 10359 10353 10352 10344 10341 10344 10331 10327 10328 10329 10322 10314 10305 10295
10357 10358 10359 10361 10363 10367 10370 10374 10375 10378 10381 10382 10384 10387 10388 10388 10389 10389 10388 10386 10384 10383 10381 10379 10375 10369 10366 10364 10359 10354 10350 10343 10340 10334 10324 10320 10314 10309 10310 10299 10294 10294 10281 10277 10272 10265 10258
10347 10348 10349 10351 10353 10356 10360 10362 10364 10365 10366 10369 10370 10370 10371 10371 10371 10370 10368 10367 10365 10363 10360 10357 10352 10347 10343 10337 10331 10328 10323 10318 10312 10306 10299 10289 10281 10272 10274 10264 10261 10254 10244 10233 10228 10225 10220
10338 10338 10340 10341 10342 10345 10347 10349 10350 10352 10353 10353 10355 10355 10355 10354 10353 10350 10348 10347 10345 10341 10337 10333 10328 10324 10320 10314 10305 10300 10295 10288 10280 10276 10268 10259 10248 10241 10236 10227 10220 10216 10203 10196 10190 10186 10182
10329 10329 10329 10330 10331 10333 10336 10339 10340 10339 10340 10341 10341 10340 10337 10336 10334 10331 10329 10325 10322 10319 10315 10311 10306 10300 10295 10287 10280 10271 10265 10258 10248 10242 10238 10228 10219 10209 10201 10191 10187 10178 10166 10158 10153 10152 10142
10320 10320 10320 10321 10322 10323 10325 10326 10327 10327 10326 10326 10324 10322 10318 10316 10313 10311 10308 10304 10300 10297 10292 10288 10283 10278 10271 10263 10255 10247 10238 10228 10218 10209 10200 10192 10183 10172 10162 10156 10153 10144 10136 10128 10122 10117 10109
10313 10312 10311 10311 10312 10312 10313 10313 10312 10310 10308 10306 10305 10304 10300 10297 10292 10289 10286 10283 10279 10275 10270 10264 10257 10250 10243 10234 10225 10216 10209 10199 10191 10181 10170 10161 10150 10140 10132 10124 10120 10112 10108 10099 10092 10086 10081
10305 10303 10302 10301 10301 10300 10299 10298 10296 10294 10292 10289 10286 10284 10280 10277 10273 10269 10265 10260 10255 10249 10242 10237 10230 10221 10213 10206 10198 10189 10180 10170 10161 10152 10142 10135 10123 10114 10103 10094 10089 10083 10079 10074 10069 10063 10057